Stations météo

réclame
Mon MeteoGroup
K14A, Pays-Bas (6204): Température de l'air & dewpoint: 15.10.2019 12:00:00 - 21.10.2019 12:00:00 (CEST)K14A, Pays-Bas (6204): Vitesse du vent & gusts: 15.10.2019 12:00:00 - 21.10.2019 12:00:00 (CEST)K14A, Pays-Bas (6204): Direction du vent: 15.10.2019 12:00:00 - 21.10.2019 12:00:00 (CEST)K14A, Pays-Bas (6204): reduced air pressure: 15.10.2019 12:00:00 - 21.10.2019 12:00:00 (CEST)K14A, Pays-Bas (6204): visibility: 15.10.2019 12:00:00 - 21.10.2019 12:00:00 (CEST)
Date & Time tt [°C] td [°C] ff [km/h] ff [knt] fx [km/h] fx [knt] dd ppp [hPa] vv [km]
21.10.2019 12:00:00 13,7 10,1 31 17 32 18 N 1016,5 10
21.10.2019 11:00:00 14,4 8,9 34 18 32 18 N 1016,4 10
21.10.2019 10:00:00 14,5 10,3 39 21 43 23 NE 1015,6 10
21.10.2019 09:00:00 14,4 10,0 44 24 47 25 NE 1014,7 10
21.10.2019 08:00:00 14,2 10,7 42 23 47 25 NNE 1014,6 10
21.10.2019 07:00:00 14,0 10,2 44 24 43 23 NNE 1014,7 10
21.10.2019 06:00:00 13,8 10,0 44 24 47 25 NNE 1014,6 10
21.10.2019 05:00:00 14,0 10,4 46 25 43 23 NNE 1015,0 10
21.10.2019 04:00:00 14,2 10,2 34 18 36 19 NNE 1014,7 10
21.10.2019 03:00:00 14,1 9,4 37 20 36 19 NNE 1014,2 10
21.10.2019 02:00:00 14,1 9,3 31 17 32 18 NE 1014,6 10
21.10.2019 01:00:00 13,9 9,3 31 17 32 18 NE 1014,1 10
21.10.2019 00:00:00 13,7 8,6 31 17 32 18 NE 1013,6 10
20.10.2019 23:00:00 13,5 8,5 29 16 29 16 NE 1013,6 10
20.10.2019 22:00:00 13,6 8,7 28 15 29 16 NE 1012,9 10
20.10.2019 21:00:00 13,1 9,3 24 13 25 14 NE 1012,7 10
20.10.2019 20:00:00 13,5 9,2 11 6 14 8 NE 1012,2 10
20.10.2019 19:00:00 13,1 8,8 13 7 14 8 N 1011,6 10
20.10.2019 18:00:00 13,2 8,8 13 7 18 10 W 1010,8 10
20.10.2019 17:00:00 13,3 8,9 15 8 18 10 W 1010,4 10
20.10.2019 16:00:00 13,3 9,0 9 5 22 12 - 1010,1 10
20.10.2019 15:00:00 13,9 8,6 15 8 22 12 SSE 1009,7 10
20.10.2019 14:00:00 13,8 9,5 15 8 18 10 W 1009,6 10
20.10.2019 13:00:00 13,5 8,9 21 11 25 14 W 1009,3 10
20.10.2019 12:00:00 12,6 8,7 26 14 25 14 W 1009,0 10
20.10.2019 11:00:00 12,9 8,1 21 11 25 14 WSW 1008,5 10
20.10.2019 10:00:00 12,5 8,6 22 12 25 14 W 1007,9 10
20.10.2019 09:00:00 12,4 8,3 26 14 29 16 W 1007,3 10
20.10.2019 08:00:00 12,5 7,8 29 16 32 18 W 1006,8 10
20.10.2019 07:00:00 12,7 8,4 29 16 36 19 W 1006,2 10
20.10.2019 06:00:00 12,8 8,6 34 18 36 19 W 1005,7 10
20.10.2019 05:00:00 13,0 9,0 31 17 32 18 WSW 1005,2 10
20.10.2019 04:00:00 13,4 8,6 35 19 40 21 WSW 1005,1 10
20.10.2019 03:00:00 13,7 8,4 34 18 32 18 SSE 1005,0 10
20.10.2019 02:00:00 13,7 8,0 29 16 32 18 WSW 1004,7 10
20.10.2019 01:00:00 13,7 7,8 34 18 36 19 WSW 1004,4 10
20.10.2019 00:00:00 13,8 7,1 35 19 36 19 WSW 1004,0 10
19.10.2019 23:00:00 13,7 7,3 39 21 43 23 WSW 1003,6 10
19.10.2019 22:00:00 13,7 7,9 44 24 47 25 WSW 1002,9 10
19.10.2019 21:00:00 14,0 7,8 46 25 47 25 WSW 1002,2 10
19.10.2019 20:00:00 14,1 7,7 48 26 54 29 WSW 1001,9 10
19.10.2019 19:00:00 14,1 8,1 44 24 47 25 SE 1001,4 10
19.10.2019 18:00:00 14,2 8,5 52 28 54 29 SSE 1000,9 10
19.10.2019 17:00:00 14,4 8,7 52 28 50 27 SE 1000,4 10
19.10.2019 16:00:00 14,6 9,0 50 27 47 25 SE 999,7 10
19.10.2019 15:00:00 14,0 10,2 39 21 47 25 SE 999,8 10
19.10.2019 14:00:00 13,9 10,0 44 24 47 25 SSE 999,9 10
19.10.2019 13:00:00 14,5 8,8 46 25 58 31 SE 999,6 10
19.10.2019 12:00:00 14,2 9,7 46 25 54 29 SSW 999,5 10
19.10.2019 11:00:00 12,7 8,9 54 29 58 31 SE 999,8 10
19.10.2019 10:00:00 14,3 10,1 52 28 54 29 SE 999,1 10
19.10.2019 09:00:00 14,3 9,4 54 29 58 31 ESE 998,8 10
19.10.2019 08:00:00 13,9 9,5 59 32 61 33 ESE 998,6 10
19.10.2019 07:00:00 13,1 10,0 59 32 68 37 SE 999,2 10
19.10.2019 06:00:00 14,2 9,6 57 31 76 41 SE 999,4 10
19.10.2019 05:00:00 13,5 10,0 37 20 61 33 ESE 999,4 6
19.10.2019 04:00:00 14,3 10,0 55 30 61 33 SE 999,5 10
19.10.2019 03:00:00 14,9 9,6 54 29 58 31 SE 999,8 10
19.10.2019 02:00:00 14,8 10,7 59 32 65 35 SE 1000,0 10
19.10.2019 01:00:00 15,0 8,5 70 38 68 37 SE 1000,1 10
19.10.2019 00:00:00 15,0 9,0 67 36 72 39 SE 1000,3 10
18.10.2019 23:00:00 14,8 8,9 68 37 68 37 SSE 1000,5 10
18.10.2019 22:00:00 14,4 10,1 55 30 58 31 SSE 1000,4 10
18.10.2019 21:00:00 13,2 7,4 54 29 83 45 SSE 1000,7 10
18.10.2019 20:00:00 15,0 8,8 63 34 68 37 SSE 999,8 10
18.10.2019 19:00:00 14,6 9,5 48 26 68 37 S 999,6 7
18.10.2019 18:00:00 12,4 8,5 61 33 - - SE 1000,0 10
18.10.2019 17:00:00 14,0 8,0 61 33 - - SSE - 10
18.10.2019 16:00:00 13,5 7,7 54 29 61 33 SSE 999,2 10
18.10.2019 15:00:00 12,9 8,5 63 34 65 35 WSW 998,6 10
18.10.2019 14:00:00 12,3 9,7 46 25 58 31 W 997,5 10
18.10.2019 13:00:00 12,1 10,0 65 35 68 37 SE 997,0 10
18.10.2019 12:00:00 12,5 9,3 48 26 58 31 SE 997,2 10
18.10.2019 11:00:00 12,1 10,6 35 19 47 25 SSE 997,8 10
18.10.2019 10:00:00 14,2 10,2 42 23 47 25 S 998,0 10
18.10.2019 09:00:00 14,9 11,0 48 26 47 25 S 999,0 10
18.10.2019 08:00:00 14,9 9,6 41 22 47 25 S 999,8 10
18.10.2019 07:00:00 15,1 10,9 50 27 50 27 ESE 1000,5 10
18.10.2019 06:00:00 14,9 11,3 41 22 58 31 ESE 1001,3 10
18.10.2019 05:00:00 15,2 10,3 41 22 43 23 ESE 1002,1 10
18.10.2019 04:00:00 15,0 11,3 39 21 40 21 SE 1002,7 10
18.10.2019 03:00:00 14,9 11,4 35 19 40 21 ESE 1003,6 10
18.10.2019 02:00:00 14,5 10,6 24 13 54 29 S 1004,2 10
18.10.2019 01:00:00 15,0 10,9 39 21 43 23 SSW 1005,0 10
18.10.2019 00:00:00 14,9 11,4 41 22 43 23 ESE 1005,1 10
17.10.2019 23:00:00 13,7 10,6 50 27 58 31 SE 1005,9 10
17.10.2019 22:00:00 13,2 11,0 44 24 58 31 SE 1006,2 10
17.10.2019 21:00:00 15,5 10,9 44 24 43 23 S 1006,3 10
17.10.2019 20:00:00 15,1 10,1 37 20 40 21 S 1006,6 10
17.10.2019 19:00:00 14,7 9,7 31 17 40 21 SSW 1006,7 10
17.10.2019 18:00:00 14,6 9,5 42 23 47 25 SE 1006,9 10
17.10.2019 17:00:00 14,8 10,7 41 22 40 21 ESE 1006,7 10
17.10.2019 16:00:00 14,6 9,0 31 17 36 19 ESE 1007,4 10
17.10.2019 15:00:00 14,4 10,5 28 15 36 19 S 1007,5 10
17.10.2019 14:00:00 14,4 10,0 37 20 36 19 S 1007,9 10
17.10.2019 13:00:00 15,1 7,5 28 15 29 16 ESE 1008,1 10
17.10.2019 12:00:00 14,4 6,8 24 13 25 14 SE 1008,3 10
17.10.2019 11:00:00 14,1 6,9 28 15 32 18 SSE 1008,5 10
17.10.2019 10:00:00 13,8 5,2 34 18 36 19 WSW 1008,1 10
17.10.2019 09:00:00 13,7 4,2 31 17 32 18 SSE 1007,6 10
17.10.2019 08:00:00 13,8 5,2 31 17 32 18 WSW 1006,9 10
17.10.2019 07:00:00 13,5 7,2 26 14 25 14 W 1006,5 10
17.10.2019 06:00:00 13,7 6,6 26 14 32 18 W 1006,4 10
17.10.2019 05:00:00 13,4 6,1 31 17 36 19 W 1006,3 10
17.10.2019 04:00:00 13,5 6,6 31 17 32 18 W 1006,0 10
17.10.2019 03:00:00 13,7 7,4 26 14 29 16 W 1005,6 10
17.10.2019 02:00:00 13,9 8,6 29 16 29 16 W 1005,2 10
17.10.2019 01:00:00 14,1 8,9 26 14 29 16 W 1004,7 10
17.10.2019 00:00:00 14,4 9,7 28 15 32 18 W 1004,6 10
16.10.2019 23:00:00 14,3 9,1 31 17 36 19 W 1004,4 10
16.10.2019 22:00:00 14,5 10,1 37 20 36 19 W 1003,9 10
16.10.2019 21:00:00 14,9 10,5 34 18 36 19 WSW 1003,4 10
16.10.2019 20:00:00 14,9 12,6 42 23 47 25 W 1003,2 10
16.10.2019 19:00:00 16,0 12,8 46 25 54 29 SSE 1002,4 10
16.10.2019 18:00:00 15,9 15,1 48 26 50 27 ESE 1001,9 10
16.10.2019 17:00:00 15,4 14,8 42 23 43 23 S 1002,1 10
16.10.2019 16:00:00 14,7 13,9 42 23 43 23 S 1002,3 10
16.10.2019 15:00:00 14,8 13,3 41 22 43 23 S 1002,9 10
16.10.2019 14:00:00 14,6 12,5 44 24 47 25 S 1003,5 10
16.10.2019 13:00:00 14,7 11,9 44 24 43 23 S 1004,0 10
16.10.2019 12:00:00 14,7 12,0 39 21 43 23 S 1004,6 10
16.10.2019 11:00:00 15,3 11,9 41 22 40 21 S 1004,8 10
16.10.2019 10:00:00 15,4 11,0 34 18 40 21 S 1005,2 10
16.10.2019 09:00:00 14,8 9,8 37 20 36 19 SSW 1005,3 10
16.10.2019 08:00:00 14,9 10,7 34 18 32 18 SSW 1005,2 10
16.10.2019 07:00:00 14,9 11,2 31 17 32 18 SSW 1005,3 10
16.10.2019 06:00:00 14,9 11,4 31 17 32 18 SSW 1005,5 10
16.10.2019 05:00:00 14,9 11,4 31 17 32 18 SW 1005,6 10
16.10.2019 04:00:00 14,9 11,8 31 17 32 18 SW 1005,9 10
16.10.2019 03:00:00 14,7 12,3 16 9 29 16 S 1005,8 10
16.10.2019 02:00:00 14,3 11,4 11 6 11 6 S 1006,3 10
16.10.2019 01:00:00 13,9 10,7 13 7 18 10 SW 1006,5 10
16.10.2019 00:00:00 13,7 10,3 18 10 25 14 W 1006,7 10
15.10.2019 23:00:00 13,8 10,5 24 13 25 14 W 1006,7 10
15.10.2019 22:00:00 14,0 11,1 21 11 29 16 W 1006,2 10
15.10.2019 21:00:00 14,0 11,3 24 13 25 14 WSW 1006,0 10
15.10.2019 20:00:00 14,0 11,3 22 12 22 12 WSW 1005,6 10
15.10.2019 19:00:00 13,7 11,1 22 12 22 12 SW 1005,2 10
15.10.2019 18:00:00 13,5 11,1 22 12 25 14 WSW 1004,6 10
15.10.2019 17:00:00 13,4 10,8 28 15 29 16 WSW 1004,6 10
15.10.2019 16:00:00 13,6 11,3 31 17 32 18 SW 1004,5 10
15.10.2019 15:00:00 13,4 10,9 31 17 36 19 WSW 1004,1 10
15.10.2019 14:00:00 13,7 11,2 37 20 40 21 WSW 1003,9 10
15.10.2019 13:00:00 13,8 11,5 36 19 - - SW 1004,0 42
15.10.2019 12:00:00 - - - - - - - - -

tt = Température de l'air
td = dewpoint
ff = Vitesse du vent
fx = gusts
dd = Direction du vent
ppp = reduced air pressure
vv = visibility

stations d'obs. à proximité